Location: Newark
(7.0858°N, 171.3717°E)
Time: 20:21:13
(UTC+00:00)

Tiros 1 - Pass Details

Date: 30 November 2020
Orbit: 630 x 663 km, 48.4° (Epoch: 18 January)

Event Time Altitude Azimuth Distance (km) Brightness Sun altitude
Rises 23:23:59 0° 193° (SSW) 2,961 10.9 57.6°
Reaches altitude 10° 23:26:47 10° 177° (S) 2,056 10.4 57.9°
Maximum altitude 23:30:22 21° 128° (SE) 1,450 9.8 58.3°
Drops below altitude 10° 23:33:59 10° 78° (ENE) 2,066 10.0 58.6°
Sets 23:36:48 0° 63° (ENE) 2,979 10.5 58.9°
